| time (UTC) | temp C | wind direction | speed KPH | gust KPH | rain 1hr cm | rain 24hr cm | rain mn cm | humidity % | barometer mb |
| 20260507231358 | 14 | 289 | 6.4 | 11.3 | 0.00 | 0.03 | 0.03 | 47 | 1011.1 |
| 20260507230837 | 14 | 266 | 3.2 | 19.3 | 0.00 | 0.03 | 0.03 | 47 | 1011.0 |
| 20260507230358 | 14 | 294 | 6.4 | 19.3 | 0.00 | 0.03 | 0.03 | 46 | 1011.1 |
| 20260507225836 | 14 | 265 | 6.4 | 20.9 | 0.00 | 0.03 | 0.03 | 45 | 1011.1 |
| 20260507225334 | 15 | 237 | 4.8 | 12.9 | 0.00 | 0.03 | 0.03 | 46 | 1011.0 |
| 20260507224856 | 15 | 340 | 1.6 | 20.9 | 0.00 | 0.03 | 0.03 | 45 | 1011.0 |
| 20260507224335 | 15 | 290 | 3.2 | 20.9 | 0.00 | 0.03 | 0.03 | 45 | 1010.9 |
| 20260507223834 | 15 | 288 | 3.2 | 12.9 | 0.00 | 0.03 | 0.03 | 45 | 1010.9 |
| 20260507223353 | 15 | 281 | 4.8 | 16.1 | 0.00 | 0.03 | 0.03 | 45 | 1010.8 |
| 20260507222852 | 15 | 279 | 4.8 | 16.1 | 0.00 | 0.03 | 0.03 | 44 | 1010.8 |
| 20260507222350 | 15 | 342 | 3.2 | 14.5 | 0.00 | 0.03 | 0.03 | 46 | 1010.8 |
| 20260507221831 | 15 | 288 | 1.6 | 14.5 | 0.00 | 0.03 | 0.03 | 47 | 1010.6 |
| 20260507221331 | 15 | 302 | 6.4 | 14.5 | 0.00 | 0.03 | 0.03 | 44 | 1010.6 |
| 20260507220832 | 15 | 298 | 8.0 | 16.1 | 0.00 | 0.03 | 0.03 | 45 | 1010.6 |
| 20260507220331 | 15 | 271 | 8.0 | 16.1 | 0.00 | 0.03 | 0.03 | 45 | 1010.6 |
| 20260507215829 | 15 | 263 | 1.6 | 11.3 | 0.00 | 0.03 | 0.03 | 46 | 1010.4 |
| 20260507215329 | 15 | 246 | 3.2 | 11.3 | 0.00 | 0.03 | 0.03 | 46 | 1010.4 |
| 20260507214850 | 15 | 321 | 4.8 | 11.3 | 0.00 | 0.03 | 0.03 | 47 | 1010.4 |
| 20260507214330 | 15 | 230 | 4.8 | 19.3 | 0.00 | 0.03 | 0.03 | 45 | 1010.4 |
| 20260507213829 | 15 | 279 | 9.7 | 19.3 | 0.00 | 0.03 | 0.03 | 45 | 1010.5 |
| 20260507213330 | 15 | 254 | 4.8 | 14.5 | 0.00 | 0.03 | 0.03 | 47 | 1010.4 |
| 20260507212828 | 15 | 256 | 4.8 | 14.5 | 0.00 | 0.03 | 0.03 | 45 | 1010.4 |
| 20260507212329 | 15 | 263 | 8.0 | 14.5 | 0.00 | 0.03 | 0.03 | 45 | 1010.4 |
| 20260507211831 | 15 | 269 | 3.2 | 17.7 | 0.00 | 0.03 | 0.03 | 46 | 1010.4 |
| 20260507211330 | 15 | 287 | 6.4 | 17.7 | 0.00 | 0.03 | 0.03 | 44 | 1010.4 |
| 20260507210849 | 15 | 236 | 8.0 | 16.1 | 0.00 | 0.03 | 0.03 | 46 | 1010.3 |
| 20260507210330 | 15 | 267 | 6.4 | 14.5 | 0.00 | 0.03 | 0.03 | 45 | 1010.3 |
| 20260507205828 | 15 | 271 | 4.8 | 16.1 | 0.00 | 0.03 | 0.03 | 44 | 1010.2 |
| 20260507205327 | 15 | 297 | 8.0 | 20.9 | 0.00 | 0.03 | 0.03 | 45 | 1010.2 |
| 20260507204828 | 16 | 270 | 9.7 | 20.9 | 0.00 | 0.03 | 0.03 | 43 | 1010.3 |
| 20260507204326 | 16 | 276 | 4.8 | 17.7 | 0.00 | 0.03 | 0.03 | 47 | 1010.2 |
| 20260507203825 | 16 | 272 | 11.3 | 20.9 | 0.00 | 0.03 | 0.03 | 44 | 1010.3 |
| 20260507203323 | 15 | 284 | 9.7 | 14.5 | 0.00 | 0.03 | 0.03 | 48 | 1010.1 |
| 20260507202823 | 15 | 342 | 4.8 | 14.5 | 0.00 | 0.03 | 0.03 | 46 | 1010.1 |
| 20260507202324 | 15 | 298 | 8.0 | 16.1 | 0.00 | 0.03 | 0.03 | 46 | 1010.4 |
| 20260507201823 | 15 | 271 | 4.8 | 16.1 | 0.00 | 0.03 | 0.03 | 49 | 1010.3 |
| 20260507201323 | 15 | 236 | 6.4 | 16.1 | 0.00 | 0.03 | 0.03 | 49 | 1010.2 |
| 20260507200823 | 15 | 277 | 4.8 | 12.9 | 0.00 | 0.03 | 0.03 | 49 | 1010.3 |
| 20260507200324 | 15 | 231 | 4.8 | 12.9 | 0.00 | 0.03 | 0.03 | 46 | 1010.4 |
| 20260507195825 | 15 | 323 | 4.8 | 16.1 | 0.00 | 0.03 | 0.03 | 50 | 1010.5 |
| 20260507195345 | 15 | 298 | 8.0 | 16.1 | 0.00 | 0.03 | 0.03 | 46 | 1010.6 |
| 20260507194824 | 15 | 306 | 8.0 | 14.5 | 0.00 | 0.03 | 0.03 | 46 | 1010.6 |
| 20260507194325 | 16 | 243 | 4.8 | 11.3 | 0.00 | 0.03 | 0.03 | 47 | 1010.7 |
| 20260507193825 | 16 | 294 | 3.2 | 11.3 | 0.00 | 0.03 | 0.03 | 47 | 1010.8 |
| 20260507193325 | 16 | 255 | 6.4 | 16.1 | 0.00 | 0.03 | 0.03 | 46 | 1010.8 |
| 20260507192825 | 16 | 292 | 6.4 | 16.1 | 0.00 | 0.03 | 0.03 | 46 | 1010.9 |
| 20260507192344 | 15 | 288 | 8.0 | 14.5 | 0.00 | 0.03 | 0.03 | 51 | 1010.8 |
| 20260507191824 | 15 | 319 | 4.8 | 12.9 | 0.00 | 0.03 | 0.03 | 50 | 1010.8 |
| 20260507191322 | 15 | 270 | 4.8 | 12.9 | 0.00 | 0.03 | 0.03 | 51 | 1010.8 |
| 20260507190823 | 15 | 298 | 8.0 | 12.9 | 0.00 | 0.03 | 0.03 | 49 | 1010.9 |
| 20260507190322 | 15 | 226 | 4.8 | 12.9 | 0.00 | 0.03 | 0.03 | 49 | 1010.9 |
| 20260507185823 | 15 | 240 | 8.0 | 14.5 | 0.00 | 0.03 | 0.03 | 48 | 1010.9 |
| 20260507185321 | 16 | 305 | 6.4 | 16.1 | 0.00 | 0.03 | 0.03 | 47 | 1010.9 |
| 20260507184842 | 16 | 248 | 9.7 | 16.1 | 0.00 | 0.03 | 0.03 | 47 | 1011.0 |
| 20260507184320 | 16 | 324 | 4.8 | 16.1 | 0.00 | 0.03 | 0.03 | 48 | 1011.0 |
| 20260507183839 | 17 | 266 | 4.8 | 16.1 | 0.00 | 0.03 | 0.03 | 53 | 1011.0 |
| 20260507183340 | 16 | 281 | 4.8 | 14.5 | 0.00 | 0.03 | 0.03 | 50 | 1011.0 |
| 20260507182839 | 16 | 111 | 3.2 | 14.5 | 0.00 | 0.03 | 0.03 | 48 | 1011.1 |
| 20260507182400 | 16 | 269 | 4.8 | 14.5 | 0.00 | 0.03 | 0.03 | 50 | 1011.2 |
| 20260507181838 | 16 | 140 | 4.8 | 14.5 | 0.00 | 0.03 | 0.03 | 54 | 1011.2 |
| 20260507181338 | 15 | 283 | 4.8 | 14.5 | 0.00 | 0.03 | 0.03 | 52 | 1011.1 |
| 20260507180836 | 15 | 272 | 4.8 | 11.3 | 0.00 | 0.03 | 0.03 | 54 | 1011.2 |
| 20260507180336 | 15 | 327 | 1.6 | 11.3 | 0.00 | 0.03 | 0.03 | 50 | 1011.3 |
| 20260507175856 | 16 | 275 | 3.2 | 14.5 | 0.00 | 0.03 | 0.03 | 51 | 1011.3 |
| 20260507175337 | 15 | 350 | 4.8 | 14.5 | 0.00 | 0.03 | 0.03 | 53 | 1011.3 |
| 20260507174839 | 15 | 314 | 6.4 | 12.9 | 0.00 | 0.03 | 0.03 | 51 | 1011.4 |
| 20260507174359 | 16 | 244 | 4.8 | 16.1 | 0.00 | 0.03 | 0.03 | 51 | 1011.4 |
| 20260507173858 | 15 | 152 | 3.2 | 16.1 | 0.00 | 0.03 | 0.03 | 52 | 1011.5 |
| 20260507173336 | 15 | 275 | 3.2 | 12.9 | 0.00 | 0.03 | 0.03 | 53 | 1011.7 |
| 20260507172834 | 15 | 5 | 4.8 | 14.5 | 0.00 | 0.03 | 0.03 | 52 | 1011.8 |
| 20260507172334 | 15 | 251 | 9.7 | 17.7 | 0.00 | 0.03 | 0.03 | 52 | 1011.9 |
| 20260507171834 | 15 | 128 | 6.4 | 17.7 | 0.00 | 0.03 | 0.03 | 51 | 1011.9 |
| 20260507171334 | 15 | 291 | 3.2 | 14.5 | 0.00 | 0.03 | 0.03 | 49 | 1011.9 |
| 20260507170335 | 15 | 248 | 3.2 | 17.7 | 0.00 | 0.03 | 0.03 | 51 | 1012.1 |
| 20260507165835 | 15 | 278 | 3.2 | 14.5 | 0.00 | 0.03 | 0.03 | 48 | 1012.1 |
| 20260507165335 | 15 | 308 | 4.8 | 12.9 | 0.00 | 0.03 | 0.03 | 50 | 1012.1 |
| 20260507164838 | 15 | 279 | 3.2 | 17.7 | 0.00 | 0.03 | 0.03 | 51 | 1012.1 |
| 20260507164337 | 15 | 265 | 6.4 | 17.7 | 0.00 | 0.03 | 0.03 | 51 | 1012.2 |
| 20260507163837 | 15 | 281 | 3.2 | 14.5 | 0.00 | 0.03 | 0.03 | 53 | 1012.2 |
| 20260507163337 | 14 | 236 | 4.8 | 8.0 | 0.00 | 0.03 | 0.03 | 58 | 1012.3 |
| 20260507162838 | 14 | 196 | 0.0 | 9.7 | 0.00 | 0.03 | 0.03 | 54 | 1012.3 |
| 20260507162339 | 14 | 211 | 1.6 | 12.9 | 0.00 | 0.03 | 0.03 | 53 | 1012.3 |
| 20260507161857 | 13 | 321 | 6.4 | 12.9 | 0.00 | 0.03 | 0.03 | 57 | 1012.4 |
| 20260507161335 | 13 | 320 | 1.6 | 11.3 | 0.00 | 0.03 | 0.03 | 58 | 1012.4 |
| 20260507160835 | 13 | 332 | 6.4 | 11.3 | 0.00 | 0.03 | 0.03 | 52 | 1012.5 |
| 20260507160336 | 13 | 309 | 6.4 | 11.3 | 0.00 | 0.03 | 0.03 | 53 | 1012.5 |
| 20260507155836 | 13 | 327 | 3.2 | 11.3 | 0.00 | 0.05 | 0.03 | 52 | 1012.5 |
| 20260507155336 | 14 | 320 | 3.2 | 14.5 | 0.00 | 0.05 | 0.03 | 51 | 1012.6 |
| 20260507154836 | 15 | 117 | 1.6 | 14.5 | 0.00 | 0.05 | 0.03 | 52 | 1012.6 |
| 20260507154334 | 14 | 256 | 3.2 | 16.1 | 0.00 | 0.05 | 0.03 | 54 | 1012.7 |
| 20260507153834 | 14 | 271 | 8.0 | 17.7 | 0.00 | 0.05 | 0.03 | 55 | 1012.6 |
| 20260507153350 | 13 | 221 | 6.4 | 17.7 | 0.00 | 0.05 | 0.03 | 58 | 1012.7 |
| 20260507152829 | 13 | 279 | 0.0 | 8.0 | 0.00 | 0.05 | 0.03 | 56 | 1012.7 |
| 20260507152351 | 13 | 232 | 0.0 | 8.0 | 0.00 | 0.05 | 0.03 | 57 | 1012.7 |
| 20260507151328 | 13 | 238 | 3.2 | 9.7 | 0.00 | 0.05 | 0.03 | 57 | 1012.9 |
| 20260507150847 | 13 | 311 | 3.2 | 9.7 | 0.00 | 0.05 | 0.03 | 55 | 1013.0 |
| 20260507150327 | 14 | 254 | 3.2 | 11.3 | 0.00 | 0.05 | 0.03 | 59 | 1013.0 |
| 20260507145825 | 13 | 217 | 3.2 | 14.5 | 0.00 | 0.10 | 0.03 | 57 | 1013.1 |
| 20260507145325 | 14 | 311 | 4.8 | 14.5 | 0.00 | 0.10 | 0.03 | 57 | 1013.1 |
| 20260507144823 | 14 | 24 | 3.2 | 16.1 | 0.00 | 0.10 | 0.03 | 56 | 1013.3 |
| 20260507144344 | 13 | 298 | 8.0 | 16.1 | 0.00 | 0.10 | 0.03 | 59 | 1013.3 |
| 20260507143822 | 13 | 132 | 3.2 | 11.3 | 0.00 | 0.10 | 0.03 | 59 | 1013.2 |
| 20260507143322 | 13 | 296 | 1.6 | 11.3 | 0.00 | 0.10 | 0.03 | 57 | 1013.3 |
| 20260507142841 | 12 | 190 | 1.6 | 8.0 | 0.00 | 0.10 | 0.03 | 61 | 1013.4 |
| 20260507142341 | 12 | 257 | 0.0 | 11.3 | 0.00 | 0.10 | 0.03 | 57 | 1013.5 |
| 20260507141822 | 12 | 255 | 6.4 | 11.3 | 0.00 | 0.10 | 0.03 | 60 | 1013.6 |
| 20260507141342 | 12 | 147 | 0.0 | 12.9 | 0.00 | 0.10 | 0.03 | 61 | 1013.6 |
| 20260507140821 | 12 | 138 | 3.2 | 12.9 | 0.00 | 0.10 | 0.03 | 64 | 1013.9 |
| 20260507140322 | 11 | 199 | 0.0 | 8.0 | 0.00 | 0.10 | 0.03 | 68 | 1013.9 |
| 20260507135838 | 11 | 227 | 0.0 | 9.7 | 0.00 | 0.18 | 0.03 | 66 | 1013.9 |
| 20260507135337 | 11 | 272 | 0.0 | 9.7 | 0.00 | 0.18 | 0.03 | 68 | 1014.0 |
| 20260507134858 | 11 | 292 | 0.0 | 8.0 | 0.00 | 0.18 | 0.03 | 69 | 1014.1 |
| 20260507134357 | 10 | 130 | 1.6 | 9.7 | 0.00 | 0.18 | 0.03 | 76 | 1014.2 |
| 20260507133856 | 10 | 279 | 1.6 | 9.7 | 0.00 | 0.18 | 0.03 | 77 | 1014.1 |
| 20260507133337 | 10 | 200 | 0.0 | 3.2 | 0.00 | 0.18 | 0.03 | 79 | 1014.2 |
| 20260507132835 | 9 | 296 | 0.0 | 3.2 | 0.00 | 0.18 | 0.03 | 83 | 1014.2 |
| 20260507132334 | 9 | 303 | 0.0 | 6.4 | 0.00 | 0.18 | 0.03 | 85 | 1014.3 |
| 20260507131835 | 8 | 136 | 0.0 | 6.4 | 0.00 | 0.18 | 0.03 | 85 | 1014.3 |
| 20260507131335 | 8 | 234 | 1.6 | 8.0 | 0.00 | 0.18 | 0.03 | 89 | 1014.2 |
| 20260507130836 | 8 | 301 | 1.6 | 8.0 | 0.00 | 0.18 | 0.03 | 92 | 1014.2 |
| 20260507130337 | 7 | 254 | 0.0 | 3.2 | 0.00 | 0.18 | 0.03 | 95 | 1014.2 |
| 20260507125836 | 7 | 286 | 0.0 | 3.2 | 0.00 | 0.25 | 0.03 | 96 | 1014.3 |
| 20260507125335 | 7 | 284 | 0.0 | 6.4 | 0.00 | 0.25 | 0.03 | 96 | 1014.3 |
| 20260507124856 | 7 | 284 | 1.6 | 3.2 | 0.00 | 0.25 | 0.03 | 97 | 1014.3 |
| 20260507124334 | 6 | 284 | 0.0 | 3.2 | 0.00 | 0.25 | 0.03 | 97 | 1014.3 |
| 20260507123832 | 6 | 284 | 0.0 | 3.2 | 0.00 | 0.25 | 0.03 | 97 | 1014.4 |
| 20260507123333 | 6 | 285 | 0.0 | 3.2 | 0.00 | 0.25 | 0.03 | 97 | 1014.5 |
| 20260507122834 | 6 | 313 | 0.0 | 1.6 | 0.00 | 0.25 | 0.03 | 97 | 1014.5 |
| 20260507122334 | 6 | 313 | 0.0 | 1.6 | 0.03 | 0.25 | 0.03 | 97 | 1014.6 |
| 20260507121835 | 6 | 313 | 0.0 | 0.0 | 0.03 | 0.25 | 0.03 | 97 | 1014.5 |
| 20260507121333 | 5 | 313 | 0.0 | 1.6 | 0.03 | 0.25 | 0.03 | 97 | 1014.5 |
| 20260507120850 | 5 | 313 | 0.0 | 0.0 | 0.03 | 0.25 | 0.03 | 96 | 1014.5 |
| 20260507120331 | 5 | 313 | 0.0 | 0.0 | 0.03 | 0.25 | 0.03 | 96 | 1014.5 |
| 20260507115850 | 5 | 313 | 0.0 | 1.6 | 0.03 | 0.30 | 0.03 | 96 | 1014.4 |
| 20260507115330 | 5 | 313 | 0.0 | 0.0 | 0.03 | 0.30 | 0.03 | 96 | 1014.5 |
| 20260507114832 | 4 | 313 | 0.0 | 0.0 | 0.03 | 0.30 | 0.03 | 95 | 1014.5 |
| 20260507114330 | 4 | 313 | 0.0 | 0.0 | 0.03 | 0.30 | 0.03 | 95 | 1014.5 |
| 20260507113831 | 4 | 314 | 0.0 | 0.0 | 0.03 | 0.30 | 0.03 | 95 | 1014.4 |
| 20260507113331 | 4 | 314 | 0.0 | 0.0 | 0.03 | 0.30 | 0.03 | 95 | 1014.4 |
| 20260507112831 | 4 | 314 | 0.0 | 0.0 | 0.03 | 0.30 | 0.03 | 95 | 1014.3 |
| 20260507112332 | 3 | 314 | 0.0 | 0.0 | 0.00 | 0.28 | 0.00 | 94 | 1014.3 |
| 20260507111835 | 3 | 314 | 0.0 | 0.0 | 0.00 | 0.28 | 0.00 | 94 | 1014.2 |
| 20260507111330 | 3 | 314 | 0.0 | 0.0 | 0.00 | 0.28 | 0.00 | 94 | 1014.1 |
| 20260507110852 | 3 | 314 | 0.0 | 0.0 | 0.00 | 0.28 | 0.00 | 94 | 1014.0 |
| 20260507110333 | 3 | 314 | 0.0 | 0.0 | 0.00 | 0.28 | 0.00 | 94 | 1014.0 |
| 20260507105847 | 3 | 314 | 0.0 | 0.0 | 0.00 | 0.64 | 0.00 | 94 | 1013.9 |
| 20260507105327 | 3 | 314 | 0.0 | 0.0 | 0.00 | 0.64 | 0.00 | 93 | 1013.9 |
| 20260507104829 | 3 | 314 | 0.0 | 0.0 | 0.00 | 0.64 | 0.00 | 93 | 1013.9 |
| 20260507104350 | 3 | 314 | 0.0 | 0.0 | 0.00 | 0.64 | 0.00 | 93 | 1013.9 |
| 20260507103849 | 3 | 314 | 0.0 | 0.0 | 0.00 | 0.64 | 0.00 | 93 | 1013.9 |
| 20260507103348 | 3 | 314 | 0.0 | 0.0 | 0.00 | 0.64 | 0.00 | 92 | 1013.8 |
| 20260507102825 | 3 | 314 | 0.0 | 0.0 | 0.00 | 0.64 | 0.00 | 92 | 1013.9 |
| 20260507102324 | 3 | 314 | 0.0 | 0.0 | 0.00 | 0.64 | 0.00 | 92 | 1013.7 |
| 20260507101827 | 3 | 314 | 0.0 | 0.0 | 0.00 | 0.64 | 0.00 | 92 | 1013.8 |
| 20260507101326 | 4 | 314 | 0.0 | 0.0 | 0.00 | 0.64 | 0.00 | 92 | 1013.7 |
| 20260507100322 | 4 | 314 | 0.0 | 0.0 | 0.00 | 0.64 | 0.00 | 92 | 1013.5 |
| 20260507095821 | 4 | 314 | 0.0 | 0.0 | 0.00 | 0.81 | 0.00 | 91 | 1013.5 |
| 20260507095320 | 4 | 314 | 0.0 | 0.0 | 0.00 | 0.81 | 0.00 | 91 | 1013.5 |
| 20260507094841 | 4 | 314 | 0.0 | 0.0 | 0.00 | 0.81 | 0.00 | 91 | 1013.5 |
| 20260507094321 | 4 | 314 | 0.0 | 0.0 | 0.00 | 0.81 | 0.00 | 91 | 1013.6 |
| 20260507093840 | 4 | 314 | 0.0 | 0.0 | 0.00 | 0.81 | 0.00 | 90 | 1013.5 |
| 20260507093321 | 4 | 314 | 0.0 | 0.0 | 0.00 | 0.81 | 0.00 | 90 | 1013.4 |
| 20260507092840 | 4 | 314 | 0.0 | 0.0 | 0.00 | 0.81 | 0.00 | 90 | 1013.4 |
| 20260507092400 | 4 | 314 | 0.0 | 0.0 | 0.00 | 0.81 | 0.00 | 90 | 1013.4 |
| 20260507091823 | 5 | 314 | 0.0 | 0.0 | 0.00 | 0.81 | 0.00 | 89 | 1013.4 |
| 20260507091321 | 5 | 314 | 0.0 | 0.0 | 0.00 | 0.81 | 0.00 | 89 | 1013.6 |
| 20260507090841 | 5 | 314 | 0.0 | 0.0 | 0.00 | 0.81 | 0.00 | 89 | 1013.7 |
| 20260507090321 | 5 | 314 | 0.0 | 0.0 | 0.00 | 0.81 | 0.00 | 89 | 1013.7 |
| 20260507085821 | 5 | 314 | 0.0 | 0.0 | 0.00 | 1.04 | 0.00 | 89 | 1013.7 |
| 20260507085321 | 5 | 314 | 0.0 | 0.0 | 0.00 | 1.04 | 0.00 | 88 | 1013.7 |
| 20260507084822 | 5 | 314 | 0.0 | 0.0 | 0.00 | 1.04 | 0.00 | 88 | 1013.7 |
| 20260507084322 | 5 | 314 | 0.0 | 0.0 | 0.00 | 1.04 | 0.00 | 88 | 1013.7 |
| 20260507083840 | 5 | 314 | 0.0 | 0.0 | 0.00 | 1.04 | 0.00 | 87 | 1013.7 |
| 20260507083322 | 5 | 314 | 0.0 | 0.0 | 0.00 | 1.04 | 0.00 | 87 | 1013.7 |
| 20260507082821 | 5 | 314 | 0.0 | 0.0 | 0.00 | 1.04 | 0.00 | 86 | 1013.7 |
| 20260507082321 | 5 | 314 | 0.0 | 0.0 | 0.00 | 1.04 | 0.00 | 86 | 1013.7 |
| 20260507081823 | 6 | 314 | 0.0 | 0.0 | 0.00 | 1.04 | 0.00 | 85 | 1013.6 |
| 20260507080822 | 6 | 314 | 0.0 | 0.0 | 0.00 | 1.04 | 0.00 | 85 | 1013.5 |
| 20260507080324 | 6 | 314 | 0.0 | 0.0 | 0.00 | 1.04 | 0.00 | 84 | 1013.5 |
| 20260507075823 | 6 | 314 | 0.0 | 0.0 | 0.00 | 1.09 | 0.00 | 84 | 1013.5 |
| 20260507075323 | 6 | 314 | 0.0 | 0.0 | 0.00 | 1.09 | 0.00 | 84 | 1013.4 |
| 20260507074822 | 6 | 314 | 0.0 | 0.0 | 0.00 | 1.09 | 0.00 | 83 | 1013.5 |
| 20260507074340 | 6 | 314 | 0.0 | 0.0 | 0.00 | 1.09 | 0.00 | 83 | 1013.5 |
| 20260507073840 | 7 | 314 | 0.0 | 0.0 | 0.00 | 1.09 | 0.00 | 82 | 1013.5 |
| 20260507073400 | 7 | 314 | 0.0 | 0.0 | 0.00 | 1.09 | 0.00 | 81 | 1013.6 |
| 20260507072838 | 7 | 314 | 0.0 | 0.0 | 0.00 | 1.09 | 0.00 | 80 | 1013.5 |
| 20260507072338 | 7 | 314 | 0.0 | 0.0 | 0.00 | 1.09 | 0.00 | 79 | 1013.5 |
| 20260507071839 | 7 | 314 | 0.0 | 0.0 | 0.00 | 1.09 | 0.00 | 78 | 1013.5 |
| 20260507071354 | 7 | 314 | 0.0 | 0.0 | 0.00 | 1.09 | 0.00 | 78 | 1013.5 |
| 20260507070834 | 7 | 314 | 0.0 | 0.0 | 0.00 | 1.09 | 0.00 | 78 | 1013.5 |
| 20260507070354 | 7 | 314 | 0.0 | 0.0 | 0.00 | 1.09 | 0.00 | 78 | 1013.4 |
| 20260507065853 | 8 | 314 | 0.0 | 0.0 | 0.00 | 1.17 | 0.00 | 79 | 1013.4 |
| 20260507065333 | 8 | 314 | 0.0 | 0.0 | 0.00 | 1.17 | 0.00 | 80 | 1013.4 |
| 20260507064833 | 8 | 314 | 0.0 | 0.0 | 0.00 | 1.17 | 0.00 | 80 | 1013.4 |
| 20260507064332 | 8 | 314 | 0.0 | 0.0 | 0.00 | 1.17 | 0.00 | 80 | 1013.4 |
| 20260507063831 | 8 | 314 | 0.0 | 0.0 | 0.00 | 1.17 | 0.00 | 81 | 1013.4 |
| 20260507063334 | 8 | 314 | 0.0 | 0.0 | 0.00 | 1.17 | 0.00 | 83 | 1013.4 |
| 20260507062835 | 8 | 314 | 0.0 | 0.0 | 0.00 | 1.17 | 0.00 | 83 | 1013.4 |
| 20260507062331 | 8 | 314 | 0.0 | 0.0 | 0.00 | 1.17 | 0.00 | 83 | 1013.5 |
| 20260507061834 | 8 | 314 | 0.0 | 0.0 | 0.00 | 1.17 | 0.00 | 83 | 1013.7 |
| 20260507061352 | 8 | 314 | 0.0 | 0.0 | 0.00 | 1.17 | 0.00 | 83 | 1013.7 |
| 20260507060831 | 8 | 314 | 0.0 | 0.0 | 0.00 | 1.17 | 0.00 | 83 | 1013.7 |
| 20260507060333 | 8 | 314 | 0.0 | 0.0 | 0.00 | 1.17 | 0.00 | 83 | 1013.7 |
| 20260507055831 | 8 | 314 | 0.0 | 0.0 | 0.00 | 1.24 | 0.00 | 83 | 1013.9 |
| 20260507055330 | 8 | 314 | 0.0 | 0.0 | 0.00 | 1.24 | 0.00 | 83 | 1014.0 |
| 20260507054830 | 8 | 314 | 0.0 | 0.0 | 0.00 | 1.24 | 0.00 | 82 | 1014.0 |
| 20260507054329 | 8 | 314 | 0.0 | 0.0 | 0.00 | 1.24 | 0.00 | 82 | 1014.0 |
| 20260507053829 | 8 | 314 | 0.0 | 0.0 | 0.00 | 1.24 | 0.00 | 82 | 1014.0 |
| 20260507053330 | 8 | 314 | 0.0 | 0.0 | 0.00 | 1.24 | 0.00 | 82 | 1014.1 |
| 20260507052830 | 8 | 314 | 0.0 | 0.0 | 0.00 | 1.24 | 0.00 | 80 | 1014.1 |
| 20260507052331 | 8 | 314 | 0.0 | 0.0 | 0.00 | 1.24 | 0.00 | 80 | 1014.2 |
| 20260507051848 | 9 | 314 | 0.0 | 0.0 | 0.00 | 1.24 | 0.00 | 82 | 1014.2 |
| 20260507051346 | 9 | 314 | 0.0 | 0.0 | 0.00 | 1.24 | 0.00 | 81 | 1014.2 |
| 20260507050825 | 9 | 314 | 0.0 | 0.0 | 0.00 | 1.24 | 0.00 | 81 | 1014.1 |
| 20260507050325 | 9 | 314 | 0.0 | 0.0 | 0.00 | 1.24 | 0.00 | 80 | 1014.1 |
| 20260507045845 | 9 | 314 | 0.0 | 0.0 | 0.00 | 1.30 | 0.00 | 80 | 1014.1 |
| 20260507045324 | 9 | 314 | 0.0 | 0.0 | 0.00 | 1.30 | 0.00 | 81 | 1014.1 |
| 20260507044846 | 9 | 314 | 0.0 | 0.0 | 0.00 | 1.30 | 0.00 | 80 | 1014.1 |
| 20260507044323 | 9 | 314 | 0.0 | 0.0 | 0.00 | 1.30 | 0.00 | 79 | 1014.1 |
| 20260507043822 | 9 | 314 | 0.0 | 0.0 | 0.00 | 1.30 | 0.00 | 80 | 1014.1 |
| 20260507043322 | 9 | 314 | 0.0 | 0.0 | 0.00 | 1.30 | 0.00 | 80 | 1014.1 |
| 20260507042822 | 9 | 314 | 0.0 | 0.0 | 0.00 | 1.30 | 0.00 | 80 | 1014.0 |
| 20260507042323 | 9 | 314 | 0.0 | 0.0 | 0.00 | 1.30 | 0.00 | 80 | 1014.0 |
| 20260507041823 | 9 | 314 | 0.0 | 0.0 | 0.00 | 1.30 | 0.00 | 80 | 1013.9 |
| 20260507041323 | 9 | 314 | 0.0 | 0.0 | 0.00 | 1.30 | 0.00 | 80 | 1014.0 |
| 20260507040823 | 9 | 314 | 0.0 | 0.0 | 0.00 | 1.30 | 0.00 | 81 | 1014.0 |
| 20260507040324 | 9 | 314 | 0.0 | 0.0 | 0.00 | 1.30 | 0.00 | 81 | 1014.0 |
| 20260507035834 | 9 | 314 | 0.0 | 0.0 | 0.00 | 1.30 | 1.30 | 79 | 1014.0 |
| 20260507035355 | 9 | 314 | 0.0 | 0.0 | 0.00 | 1.30 | 1.30 | 80 | 1014.0 |
| 20260507034837 | 10 | 314 | 0.0 | 0.0 | 0.00 | 1.30 | 1.30 | 80 | 1013.9 |
| 20260507034357 | 10 | 314 | 0.0 | 0.0 | 0.00 | 1.30 | 1.30 | 80 | 1014.0 |
| 20260507033835 | 10 | 314 | 0.0 | 0.0 | 0.00 | 1.30 | 1.30 | 77 | 1013.9 |
| 20260507033338 | 10 | 314 | 0.0 | 0.0 | 0.00 | 1.30 | 1.30 | 1014.1 | |
| 20260507032835 | 11 | 314 | 0.0 | 0.0 | 0.00 | 1.30 | 1.30 | 1013.9 | |
| 20260507032335 | 11 | 314 | 0.0 | 0.0 | 0.00 | 1.30 | 1.30 | 78 | 1014.0 |
| 20260507031838 | 10 | 314 | 0.0 | 0.0 | 0.00 | 1.30 | 1.30 | 79 | 1014.0 |
| 20260507031338 | 10 | 314 | 0.0 | 0.0 | 0.00 | 1.30 | 1.30 | 84 | 1013.8 |
| 20260507030838 | 10 | 314 | 0.0 | 0.0 | 0.00 | 1.30 | 1.30 | 83 | 1013.6 |
| 20260507030321 | 10 | 314 | 0.0 | 0.0 | 0.00 | 1.30 | 1.30 | 82 | 1013.5 |
| 20260507025821 | 10 | 314 | 0.0 | 0.0 | 0.00 | 1.30 | 1.30 | 79 | 1013.5 |
| 20260507025322 | 10 | 314 | 0.0 | 0.0 | 0.00 | 1.30 | 1.30 | 79 | 1013.7 |
| 20260507024823 | 10 | 314 | 0.0 | 0.0 | 0.00 | 1.30 | 1.30 | 79 | 1013.4 |
| 20260507024343 | 10 | 314 | 0.0 | 0.0 | 0.00 | 1.30 | 1.30 | 79 | 1013.4 |
| 20260507023820 | 10 | 314 | 0.0 | 0.0 | 0.00 | 1.30 | 1.30 | 79 | 1013.4 |
| 20260507023343 | 10 | 314 | 0.0 | 0.0 | 0.00 | 1.30 | 1.30 | 80 | 1013.3 |
| 20260507022842 | 10 | 314 | 0.0 | 0.0 | 0.00 | 1.30 | 1.30 | 79 | 1013.2 |
| 20260507022401 | 10 | 314 | 0.0 | 0.0 | 0.00 | 1.30 | 1.30 | 79 | 1013.4 |
| 20260507021821 | 10 | 314 | 0.0 | 0.0 | 0.00 | 1.30 | 1.30 | 77 | 1013.4 |
| 20260507021342 | 10 | 314 | 0.0 | 0.0 | 0.00 | 1.30 | 1.30 | 78 | 1013.4 |
| 20260507020839 | 10 | 314 | 0.0 | 0.0 | 0.00 | 1.30 | 1.30 | 80 | 1013.3 |
| 20260507020322 | 10 | 314 | 0.0 | 0.0 | 0.00 | 1.30 | 1.30 | 80 | 1013.2 |
| 20260507015840 | 10 | 314 | 0.0 | 1.6 | 0.00 | 1.30 | 1.30 | 80 | 1013.1 |
| 20260507015339 | 10 | 314 | 0.0 | 1.6 | 0.00 | 1.30 | 1.30 | 81 | 1013.0 |
| 20260507014821 | 10 | 314 | 0.0 | 1.6 | 0.00 | 1.30 | 1.30 | 82 | 1013.0 |
| 20260507014322 | 10 | 314 | 0.0 | 3.2 | 0.00 | 1.30 | 1.30 | 83 | 1012.8 |
| 20260507013823 | 11 | 314 | 0.0 | 3.2 | 0.00 | 1.30 | 1.30 | 84 | 1012.8 |
| 20260507013326 | 11 | 301 | 0.0 | 1.6 | 0.00 | 1.30 | 1.30 | 85 | 1012.6 |
| 20260507012827 | 11 | 299 | 0.0 | 0.0 | 0.00 | 1.30 | 1.30 | 86 | 1012.7 |
| 20260507012326 | 11 | 299 | 0.0 | 1.6 | 0.00 | 1.30 | 1.30 | 86 | 1012.6 |
| 20260507011828 | 11 | 299 | 0.0 | 1.6 | 0.00 | 1.30 | 1.30 | 86 | 1012.5 |
| 20260507011327 | 11 | 295 | 0.0 | 0.0 | 0.00 | 1.30 | 1.30 | 87 | 1012.4 |
| 20260507010825 | 11 | 295 | 0.0 | 0.0 | 0.00 | 1.30 | 1.30 | 88 | 1012.4 |
| 20260507010327 | 11 | 295 | 0.0 | 0.0 | 0.00 | 1.30 | 1.30 | 88 | 1012.4 |
| 20260507005826 | 11 | 295 | 0.0 | 0.0 | 0.00 | 1.30 | 1.30 | 88 | 1012.3 |
| 20260507005326 | 11 | 295 | 0.0 | 0.0 | 0.00 | 1.30 | 1.30 | 87 | 1012.5 |
| 20260507004828 | 11 | 295 | 0.0 | 0.0 | 0.00 | 1.30 | 1.30 | 87 | 1012.5 |
| 20260507004347 | 11 | 295 | 0.0 | 0.0 | 0.00 | 1.30 | 1.30 | 86 | 1012.6 |
| 20260507003826 | 11 | 295 | 0.0 | 0.0 | 0.00 | 1.30 | 1.30 | 85 | 1012.6 |
| 20260507003328 | 11 | 295 | 0.0 | 0.0 | 0.00 | 1.30 | 1.30 | 86 | 1012.6 |
| 20260507002828 | 11 | 295 | 0.0 | 0.0 | 0.00 | 1.30 | 1.30 | 85 | 1012.6 |
| 20260507002328 | 11 | 295 | 0.0 | 0.0 | 0.00 | 1.30 | 1.30 | 85 | 1012.7 |
| 20260507001829 | 11 | 295 | 0.0 | 0.0 | 0.00 | 1.30 | 1.30 | 84 | 1012.9 |
| 20260507001329 | 11 | 295 | 0.0 | 0.0 | 0.00 | 1.30 | 1.30 | 83 | 1012.9 |
| 20260507000830 | 12 | 295 | 0.0 | 0.0 | 0.00 | 1.30 | 1.30 | 83 | 1013.1 |
| 20260507000332 | 12 | 295 | 0.0 | 0.0 | 0.00 | 1.30 | 1.30 | 83 | 1013.2 |
| 20260506235831 | 12 | 295 | 0.0 | 0.0 | 0.00 | 1.30 | 1.30 | 83 | 1013.0 |
| 20260506235331 | 12 | 295 | 0.0 | 0.0 | 0.00 | 1.30 | 1.30 | 83 | 1012.7 |
| 20260506234834 | 12 | 295 | 0.0 | 0.0 | 0.00 | 1.30 | 1.30 | 84 | 1012.5 |
| 20260506234334 | 12 | 295 | 0.0 | 0.0 | 0.00 | 1.30 | 1.30 | 84 | 1012.4 |
| 20260506233836 | 12 | 295 | 0.0 | 0.0 | 0.00 | 1.30 | 1.30 | 83 | 1012.4 |
| 20260506233338 | 12 | 295 | 0.0 | 0.0 | 0.00 | 1.30 | 1.30 | 82 | 1012.7 |
| 20260506232836 | 12 | 295 | 0.0 | 0.0 | 0.00 | 1.30 | 1.30 | 81 | 1012.6 |
| 20260506232336 | 12 | 295 | 0.0 | 0.0 | 0.00 | 1.30 | 1.30 | 81 | 1012.5 |
| 20260506231859 | 12 | 295 | 0.0 | 1.6 | 0.00 | 1.30 | 1.30 | 82 | 1012.4 |